This is the latest recevied weather packets stored in our database for station/object SQ7IQO. If no packets are shown the sender has not sent any weather packets the latest 10 day(s).
| Time | Temp. | Humidity | Pressure | Rain* | Wind** | Luminosity | Snow |
|---|---|---|---|---|---|---|---|
| 1788082303 | 25° C | 52% | 1016.5 hPa | 0 mm | 0.45 m/s, ° | - | - |
| 1788082243 | 25° C | 51% | 1016.8 hPa | 0 mm | 0.89 m/s, ° | - | - |
| 1788082183 | 25° C | 51% | 1016.9 hPa | 0 mm | 0.45 m/s, ° | - | - |
| 1788082123 | 25° C | 51% | 1021.1 hPa | 0 mm | 0.89 m/s, ° | - | - |
| 1788082063 | 25° C | 51% | 1015.1 hPa | 0 mm | 0.89 m/s, ° | - | - |
| 1788082003 | 25.56° C | 50% | 1016.9 hPa | 0 mm | 0.89 m/s, ° | - | - |
| 1788081943 | 25.56° C | 51% | 1016.8 hPa | 0 mm | 0 m/s | - | - |
| 1788081883 | 25.56° C | 51% | 1016.8 hPa | 0 mm | 0.45 m/s, ° | - | - |
| 1788081823 | 25° C | 52% | 1016.9 hPa | 0 mm | 0 m/s | - | - |
| 1788081763 | 25° C | 50% | 1016.9 hPa | 0 mm | 0 m/s | - | - |
| 1788081703 | 25° C | 50% | 1016.9 hPa | 0 mm | 0.45 m/s, ° | - | - |
| 1788081643 | 25° C | 50% | 1016.9 hPa | 0 mm | 0.45 m/s, ° | - | - |
| 1788081583 | 25.56° C | 52% | 1016.8 hPa | 0 mm | 0.45 m/s, ° | - | - |
| 1788081523 | 25° C | 51% | 1016.8 hPa | 0 mm | 0 m/s | - | - |
| 1788081463 | 25° C | 52% | 1016.9 hPa | 0 mm | 0 m/s | - | - |
| 1788081403 | 25° C | 50% | 1016.8 hPa | 0 mm | 0.45 m/s, ° | - | - |
| 1788081343 | 25° C | 51% | 1016.8 hPa | 0 mm | 0.45 m/s, ° | - | - |
| 1788081283 | 25° C | 52% | 1016.8 hPa | 0 mm | 0 m/s | - | - |
| 1788081223 | 24.44° C | 52% | 1016.8 hPa | 0 mm | 0.45 m/s, ° | - | - |
| 1788081163 | 24.44° C | 52% | 1016.9 hPa | 0 mm | 0.45 m/s, ° | - | - |
| 1788081103 | 23.89° C | 52% | 1016.9 hPa | 0 mm | 0.45 m/s, ° | - | - |
| 1788081043 | 24.44° C | 53% | - | 0 mm | 0.89 m/s, ° | - | - |
| 1788080983 | 24.44° C | 52% | 1016.9 hPa | 0 mm | 0.89 m/s, ° | - | - |
| 1788080923 | 24.44° C | 51% | 1016.9 hPa | 0 mm | 0.45 m/s, ° | - | - |
| 1788080863 | 24.44° C | 52% | 1016.8 hPa | 0 mm | 0.45 m/s, ° | - | - |
* Rain latest hour (hover to see other rain measurements)
** Current wind speed in m/s (hover to see current wind gust speed)